| time (UTC) | temp F | wind direction | speed knots | gust knots | rain 1hr in | rain 24hr in | rain mn in | humidity % | barometer mb |
| 20260905191213 | 92 | 37 | 7.8 | 0.0 | 0.00 | 0.00 | 0.00 | 40 | 1009.3 |
| 20260905190505 | 92 | 124 | 11.3 | 0.0 | 0.00 | 0.00 | 0.00 | 41 | 1008.9 |
| 20260905190213 | 92 | 88 | 7.8 | 0.0 | 0.00 | 0.00 | 0.00 | 42 | 1009.3 |
| 20260905185505 | 92 | 62 | 11.3 | 0.0 | 0.00 | 0.00 | 0.00 | 43 | 1009.3 |
| 20260905185005 | 91 | 59 | 20.0 | 0.0 | 0.00 | 0.00 | 0.00 | 44 | 1009.3 |
| 20260905184505 | 91 | 82 | 11.3 | 0.0 | 0.00 | 0.00 | 0.00 | 44 | 1009.6 |
| 20260905184004 | 91 | 45 | 15.6 | 0.0 | 0.00 | 0.00 | 0.00 | 45 | 1009.3 |
| 20260905183505 | 92 | 161 | 7.8 | 0.0 | 0.00 | 0.00 | 0.00 | 43 | 1009.6 |
| 20260905183005 | 91 | 55 | 11.3 | 0.0 | 0.00 | 0.00 | 0.00 | 43 | 1009.6 |
| 20260905182505 | 89 | 72 | 3.5 | 0.0 | 0.00 | 0.00 | 0.00 | 46 | 1009.3 |
| 20260905182005 | 90 | 131 | 7.8 | 0.0 | 0.00 | 0.00 | 0.00 | 46 | 1009.6 |
| 20260905181505 | 91 | 113 | 3.5 | 0.0 | 0.00 | 0.00 | 0.00 | 43 | 1009.6 |
| 20260905181005 | 91 | 36 | 7.8 | 0.0 | 0.00 | 0.00 | 0.00 | 44 | 1009.9 |
| 20260905180505 | 91 | 165 | 3.5 | 0.0 | 0.00 | 0.00 | 0.00 | 45 | 1009.9 |
| 20260905180005 | 90 | 107 | 3.5 | 0.0 | 0.00 | 0.00 | 0.00 | 47 | 1009.9 |
| 20260905175505 | 91 | 351 | 11.3 | 0.0 | 0.00 | 0.00 | 0.00 | 45 | 1009.9 |
| 20260905175005 | 91 | 68 | 15.6 | 0.0 | 0.00 | 0.00 | 0.00 | 44 | 1010.3 |
| 20260905174505 | 90 | 47 | 7.8 | 0.0 | 0.00 | 0.00 | 0.00 | 48 | 1009.9 |
| 20260905174212 | 91 | 18 | 11.3 | 0.0 | 0.00 | 0.00 | 0.00 | 47 | 1010.3 |
| 20260905173505 | 90 | 164 | 7.8 | 0.0 | 0.00 | 0.00 | 0.00 | 48 | 1010.3 |
| 20260905173005 | 90 | 27 | 11.3 | 0.0 | 0.00 | 0.00 | 0.00 | 47 | 1010.3 |
| 20260905172505 | 89 | 25 | 15.6 | 0.0 | 0.00 | 0.00 | 0.00 | 49 | 1010.3 |
| 20260905172005 | 90 | 81 | 7.8 | 0.0 | 0.00 | 0.00 | 0.00 | 48 | 1010.6 |
| 20260905171713 | 89 | 351 | 15.6 | 0.0 | 0.00 | 0.00 | 0.00 | 49 | 1010.6 |
| 20260905171005 | 89 | 144 | 20.0 | 0.0 | 0.00 | 0.00 | 0.00 | 50 | 1010.6 |
| 20260905170713 | 89 | 357 | 3.5 | 0.0 | 0.00 | 0.00 | 0.00 | 50 | 1010.6 |
| 20260905170212 | 89 | 119 | 0.0 | 0.0 | 0.00 | 0.00 | 0.00 | 52 | 1010.6 |
| 20260905165505 | 88 | 108 | 7.8 | 0.0 | 0.00 | 0.00 | 0.00 | 52 | 1011.0 |
| 20260905165005 | 88 | 196 | 7.8 | 0.0 | 0.00 | 0.00 | 0.00 | 54 | 1010.6 |
| 20260905164505 | 89 | 171 | 15.6 | 0.0 | 0.00 | 0.00 | 0.00 | 52 | 1010.6 |
| 20260905164005 | 89 | 88 | 15.6 | 0.0 | 0.00 | 0.00 | 0.00 | 53 | 1010.6 |
| 20260905163505 | 89 | 39 | 11.3 | 0.0 | 0.00 | 0.00 | 0.00 | 54 | 1011.0 |
| 20260905163004 | 88 | 178 | 7.8 | 0.0 | 0.00 | 0.00 | 0.00 | 53 | 1010.6 |
| 20260905162505 | 88 | 190 | 7.8 | 0.0 | 0.00 | 0.00 | 0.00 | 53 | 1011.0 |
| 20260905162005 | 86 | 45 | 3.5 | 0.0 | 0.00 | 0.00 | 0.00 | 58 | 1011.0 |
| 20260905161505 | 86 | 156 | 15.6 | 0.0 | 0.00 | 0.00 | 0.00 | 57 | 1011.3 |
| 20260905161005 | 88 | 85 | 15.6 | 0.0 | 0.00 | 0.00 | 0.00 | 55 | 1011.3 |
| 20260905160505 | 87 | 119 | 7.8 | 0.0 | 0.00 | 0.00 | 0.00 | 56 | 1011.3 |
| 20260905160005 | 87 | 116 | 11.3 | 0.0 | 0.00 | 0.00 | 0.00 | 57 | 1011.3 |
| 20260905155505 | 86 | 115 | 7.8 | 0.0 | 0.00 | 0.00 | 0.00 | 58 | 1011.3 |
| 20260905155211 | 86 | 156 | 7.8 | 0.0 | 0.00 | 0.00 | 0.00 | 58 | 1011.3 |
| 20260905154505 | 86 | 105 | 11.3 | 0.0 | 0.00 | 0.00 | 0.00 | 60 | 1011.0 |
| 20260905154005 | 86 | 119 | 3.5 | 0.0 | 0.00 | 0.00 | 0.00 | 59 | 1011.3 |
| 20260905153712 | 86 | 179 | 3.5 | 0.0 | 0.00 | 0.00 | 0.00 | 61 | 1011.0 |
| 20260905153005 | 86 | 87 | 11.3 | 0.0 | 0.00 | 0.00 | 0.00 | 61 | 1011.0 |
| 20260905152712 | 85 | 56 | 7.8 | 0.0 | 0.00 | 0.00 | 0.00 | 62 | 1011.3 |
| 20260905152005 | 85 | 355 | 3.5 | 0.0 | 0.00 | 0.00 | 0.00 | 63 | 1011.6 |
| 20260905151505 | 86 | 139 | 11.3 | 0.0 | 0.00 | 0.00 | 0.00 | 62 | 1011.3 |
| 20260905151004 | 84 | 132 | 7.8 | 0.0 | 0.00 | 0.00 | 0.00 | 65 | 1011.3 |
| 20260905150505 | 84 | 105 | 15.6 | 0.0 | 0.00 | 0.00 | 0.00 | 66 | 1011.6 |
| 20260905150005 | 84 | 142 | 15.6 | 0.0 | 0.00 | 0.00 | 0.00 | 67 | 1011.3 |
| 20260905145505 | 84 | 172 | 3.5 | 0.0 | 0.00 | 0.00 | 0.00 | 67 | 1011.3 |
| 20260905145005 | 84 | 165 | 15.6 | 0.0 | 0.00 | 0.00 | 0.00 | 68 | 1011.3 |
| 20260905144505 | 84 | 152 | 7.8 | 0.0 | 0.00 | 0.00 | 0.00 | 68 | 1011.3 |
| 20260905144005 | 83 | 61 | 11.3 | 0.0 | 0.00 | 0.00 | 0.00 | 70 | 1011.3 |
| 20260905143504 | 83 | 164 | 7.8 | 0.0 | 0.00 | 0.00 | 0.00 | 71 | 1011.3 |
| 20260905143005 | 83 | 114 | 7.8 | 0.0 | 0.00 | 0.00 | 0.00 | 72 | 1011.3 |
| 20260905142505 | 82 | 128 | 0.0 | 0.0 | 0.00 | 0.00 | 0.00 | 73 | 1011.3 |
| 20260905142213 | 83 | 199 | 11.3 | 0.0 | 0.00 | 0.00 | 0.00 | 73 | 1011.3 |
| 20260905141712 | 82 | 57 | 7.8 | 0.0 | 0.00 | 0.00 | 0.00 | 74 | 1011.3 |
| 20260905141005 | 82 | 137 | 7.8 | 0.0 | 0.00 | 0.00 | 0.00 | 76 | 1011.3 |
| 20260905140505 | 82 | 76 | 7.8 | 0.0 | 0.00 | 0.00 | 0.00 | 76 | 1011.0 |
| 20260905140005 | 82 | 129 | 7.8 | 0.0 | 0.00 | 0.00 | 0.00 | 77 | 1011.3 |
| 20260905135505 | 81 | 130 | 3.5 | 0.0 | 0.00 | 0.00 | 0.00 | 77 | 1011.0 |
| 20260905135004 | 81 | 107 | 7.8 | 0.0 | 0.00 | 0.00 | 0.00 | 79 | 1010.6 |
| 20260905134712 | 80 | 176 | 3.5 | 0.0 | 0.00 | 0.00 | 0.00 | 80 | 1011.0 |
| 20260905134004 | 80 | 73 | 11.3 | 0.0 | 0.00 | 0.00 | 0.00 | 82 | 1011.0 |
| 20260905133505 | 80 | 109 | 3.5 | 0.0 | 0.00 | 0.00 | 0.00 | 83 | 1010.6 |
| 20260905133005 | 80 | 11 | 3.5 | 0.0 | 0.00 | 0.00 | 0.00 | 83 | 1010.6 |
| 20260905132505 | 79 | 26 | 3.5 | 0.0 | 0.00 | 0.00 | 0.00 | 84 | 1010.6 |
| 20260905132005 | 79 | 103 | 11.3 | 0.0 | 0.00 | 0.00 | 0.00 | 84 | 1010.6 |
| 20260905131505 | 79 | 73 | 11.3 | 0.0 | 0.00 | 0.00 | 0.00 | 85 | 1010.6 |
| 20260905131005 | 78 | 100 | 0.0 | 0.0 | 0.00 | 0.00 | 0.00 | 86 | 1010.6 |
| 20260905130505 | 78 | 67 | 3.5 | 0.0 | 0.00 | 0.00 | 0.00 | 86 | 1010.3 |
| 20260905130004 | 78 | 82 | 0.0 | 0.0 | 0.00 | 0.00 | 0.00 | 87 | 1010.3 |
| 20260905125505 | 78 | 136 | 0.0 | 0.0 | 0.00 | 0.00 | 0.00 | 87 | 1010.3 |
| 20260905125005 | 77 | 82 | 3.5 | 0.0 | 0.00 | 0.00 | 0.00 | 88 | 1010.3 |
| 20260905124505 | 77 | 134 | 0.0 | 0.0 | 0.00 | 0.00 | 0.00 | 88 | 1010.3 |
| 20260905124005 | 77 | 117 | 0.0 | 0.0 | 0.00 | 0.00 | 0.00 | 88 | 1009.9 |
| 20260905123505 | 77 | 70 | 3.5 | 0.0 | 0.00 | 0.00 | 0.00 | 88 | 1009.9 |
| 20260905123212 | 77 | 128 | 0.0 | 0.0 | 0.00 | 0.00 | 0.00 | 88 | 1009.9 |
| 20260905122504 | 77 | 121 | 0.0 | 0.0 | 0.00 | 0.00 | 0.00 | 88 | 1009.9 |
| 20260905122005 | 77 | 154 | 0.0 | 0.0 | 0.00 | 0.00 | 0.00 | 88 | 1009.9 |
| 20260905121505 | 77 | 100 | 3.5 | 0.0 | 0.00 | 0.00 | 0.00 | 88 | 1009.6 |
| 20260905121005 | 77 | 99 | 0.0 | 0.0 | 0.00 | 0.00 | 0.00 | 88 | 1009.6 |
| 20260905120711 | 77 | 107 | 3.5 | 0.0 | 0.00 | 0.00 | 0.00 | 88 | 1009.9 |
| 20260905120005 | 77 | 124 | 0.0 | 0.0 | 0.00 | 0.00 | 0.00 | 88 | 1009.6 |
| 20260905115505 | 77 | 101 | 0.0 | 0.0 | 0.00 | 0.00 | 0.00 | 88 | 1009.6 |
| 20260905115005 | 77 | 94 | 0.0 | 0.0 | 0.00 | 0.00 | 0.00 | 87 | 1009.3 |
| 20260905114713 | 77 | 127 | 0.0 | 0.0 | 0.00 | 0.00 | 0.00 | 87 | 1009.6 |
| 20260905114005 | 77 | 79 | 3.5 | 0.0 | 0.00 | 0.00 | 0.00 | 87 | 1009.3 |
| 20260905113505 | 77 | 126 | 0.0 | 0.0 | 0.00 | 0.00 | 0.00 | 87 | 1009.6 |
| 20260905113005 | 78 | 106 | 0.0 | 0.0 | 0.00 | 0.00 | 0.00 | 87 | 1009.6 |
| 20260905112504 | 78 | 132 | 0.0 | 0.0 | 0.00 | 0.00 | 0.00 | 86 | 1009.6 |
| 20260905112005 | 78 | 93 | 0.0 | 0.0 | 0.00 | 0.00 | 0.00 | 86 | 1009.3 |
| 20260905111505 | 78 | 135 | 0.0 | 0.0 | 0.00 | 0.00 | 0.00 | 86 | 1009.6 |
| 20260905111005 | 78 | 68 | 3.5 | 0.0 | 0.00 | 0.00 | 0.00 | 86 | 1009.6 |
| 20260905110505 | 78 | 99 | 0.0 | 0.0 | 0.00 | 0.00 | 0.00 | 86 | 1009.6 |
| 20260905110005 | 78 | 86 | 3.5 | 0.0 | 0.00 | 0.00 | 0.00 | 85 | 1009.3 |
| 20260905105505 | 78 | 51 | 3.5 | 0.0 | 0.00 | 0.00 | 0.00 | 85 | 1009.6 |
| 20260905105005 | 78 | 129 | 0.0 | 0.0 | 0.00 | 0.00 | 0.00 | 85 | 1009.3 |
| 20260905104712 | 78 | 132 | 0.0 | 0.0 | 0.00 | 0.00 | 0.00 | 85 | 1009.3 |
| 20260905104212 | 78 | 83 | 3.5 | 0.0 | 0.00 | 0.00 | 0.00 | 85 | 1009.6 |
| 20260905103505 | 78 | 121 | 0.0 | 0.0 | 0.00 | 0.00 | 0.00 | 85 | 1009.6 |
| 20260905103005 | 78 | 115 | 0.0 | 0.0 | 0.00 | 0.00 | 0.00 | 85 | 1009.6 |
| 20260905102505 | 78 | 104 | 0.0 | 0.0 | 0.00 | 0.00 | 0.00 | 85 | 1009.6 |
| 20260905102005 | 79 | 108 | 0.0 | 0.0 | 0.00 | 0.00 | 0.00 | 85 | 1009.3 |
| 20260905101505 | 79 | 96 | 0.0 | 0.0 | 0.00 | 0.00 | 0.00 | 85 | 1009.6 |
| 20260905101211 | 79 | 116 | 0.0 | 0.0 | 0.00 | 0.00 | 0.00 | 85 | 1009.6 |
| 20260905100505 | 79 | 126 | 3.5 | 0.0 | 0.00 | 0.00 | 0.00 | 85 | 1009.6 |
| 20260905100005 | 79 | 112 | 3.5 | 0.0 | 0.00 | 0.00 | 0.00 | 85 | 1009.6 |
| 20260905095505 | 79 | 108 | 0.0 | 0.0 | 0.00 | 0.00 | 0.00 | 85 | 1009.6 |
| 20260905095005 | 79 | 141 | 0.0 | 0.0 | 0.00 | 0.00 | 0.00 | 84 | 1009.9 |
| 20260905094505 | 79 | 114 | 0.0 | 0.0 | 0.00 | 0.00 | 0.00 | 84 | 1009.6 |
| 20260905094005 | 79 | 108 | 0.0 | 0.0 | 0.00 | 0.00 | 0.00 | 84 | 1009.9 |
| 20260905093505 | 79 | 128 | 0.0 | 0.0 | 0.00 | 0.00 | 0.00 | 84 | 1009.6 |
| 20260905093004 | 79 | 65 | 0.0 | 0.0 | 0.00 | 0.00 | 0.00 | 85 | 1009.6 |
| 20260905092505 | 79 | 97 | 3.5 | 0.0 | 0.00 | 0.00 | 0.00 | 84 | 1009.6 |
| 20260905092005 | 79 | 96 | 0.0 | 0.0 | 0.00 | 0.00 | 0.00 | 84 | 1009.9 |
| 20260905091712 | 79 | 168 | 0.0 | 0.0 | 0.00 | 0.00 | 0.00 | 84 | 1009.6 |
| 20260905091213 | 79 | 152 | 3.5 | 0.0 | 0.00 | 0.00 | 0.00 | 84 | 1009.6 |
| 20260905090505 | 79 | 138 | 0.0 | 0.0 | 0.00 | 0.00 | 0.00 | 84 | 1009.9 |
| 20260905090005 | 79 | 141 | 3.5 | 0.0 | 0.00 | 0.00 | 0.00 | 84 | 1009.6 |
| 20260905085505 | 79 | 72 | 3.5 | 0.0 | 0.00 | 0.00 | 0.00 | 85 | 1009.6 |
| 20260905085005 | 79 | 112 | 0.0 | 0.0 | 0.00 | 0.00 | 0.00 | 85 | 1009.9 |
| 20260905084712 | 79 | 95 | 3.5 | 0.0 | 0.00 | 0.00 | 0.00 | 85 | 1009.9 |
| 20260905084005 | 79 | 115 | 0.0 | 0.0 | 0.00 | 0.00 | 0.00 | 85 | 1009.9 |
| 20260905083505 | 79 | 103 | 0.0 | 0.0 | 0.00 | 0.00 | 0.00 | 85 | 1009.9 |
| 20260905083005 | 79 | 162 | 0.0 | 0.0 | 0.00 | 0.00 | 0.00 | 85 | 1009.9 |
| 20260905082505 | 79 | 117 | 0.0 | 0.0 | 0.00 | 0.00 | 0.00 | 85 | 1009.9 |
| 20260905082005 | 79 | 130 | 0.0 | 0.0 | 0.00 | 0.00 | 0.00 | 85 | 1009.9 |
| 20260905081711 | 79 | 118 | 3.5 | 0.0 | 0.00 | 0.00 | 0.00 | 84 | 1009.9 |
| 20260905081005 | 80 | 99 | 0.0 | 0.0 | 0.00 | 0.00 | 0.00 | 84 | 1009.9 |
| 20260905080505 | 80 | 78 | 3.5 | 0.0 | 0.00 | 0.00 | 0.00 | 84 | 1010.3 |
| 20260905080005 | 80 | 35 | 3.5 | 0.0 | 0.00 | 0.00 | 0.00 | 84 | 1010.3 |
| 20260905075505 | 80 | 33 | 3.5 | 0.0 | 0.00 | 0.00 | 0.00 | 84 | 1009.9 |
| 20260905075212 | 80 | 128 | 7.8 | 0.0 | 0.00 | 0.00 | 0.00 | 84 | 1010.3 |
| 20260905074505 | 80 | 109 | 0.0 | 0.0 | 0.00 | 0.00 | 0.00 | 84 | 1010.3 |
| 20260905074005 | 80 | 131 | 0.0 | 0.0 | 0.00 | 0.00 | 0.00 | 84 | 1010.3 |
| 20260905073505 | 80 | 127 | 0.0 | 0.0 | 0.00 | 0.00 | 0.00 | 84 | 1010.3 |
| 20260905073005 | 80 | 99 | 0.0 | 0.0 | 0.00 | 0.00 | 0.00 | 84 | 1010.3 |
| 20260905072505 | 80 | 116 | 0.0 | 0.0 | 0.00 | 0.00 | 0.00 | 84 | 1010.3 |
| 20260905072212 | 80 | 123 | 0.0 | 0.0 | 0.00 | 0.00 | 0.00 | 83 | 1010.6 |
| 20260905071505 | 80 | 83 | 3.5 | 0.0 | 0.00 | 0.00 | 0.00 | 83 | 1010.6 |
| 20260905071005 | 80 | 108 | 3.5 | 0.0 | 0.00 | 0.00 | 0.00 | 83 | 1010.6 |
| 20260905070711 | 80 | 110 | 3.5 | 0.0 | 0.00 | 0.00 | 0.00 | 83 | 1010.6 |
| 20260905070005 | 80 | 130 | 0.0 | 0.0 | 0.00 | 0.00 | 0.00 | 83 | 1010.6 |
| 20260905065713 | 80 | 41 | 11.3 | 0.0 | 0.00 | 0.00 | 0.00 | 83 | 1010.6 |
| 20260905065005 | 80 | 109 | 0.0 | 0.0 | 0.00 | 0.00 | 0.00 | 82 | 1010.6 |
| 20260905064713 | 80 | 48 | 7.8 | 0.0 | 0.00 | 0.00 | 0.00 | 82 | 1010.6 |
| 20260905064005 | 80 | 78 | 3.5 | 0.0 | 0.00 | 0.00 | 0.00 | 82 | 1010.6 |
| 20260905063713 | 80 | 111 | 0.0 | 0.0 | 0.00 | 0.00 | 0.00 | 82 | 1011.0 |
| 20260905063005 | 80 | 85 | 7.8 | 0.0 | 0.00 | 0.00 | 0.00 | 82 | 1010.6 |
| 20260905062505 | 80 | 91 | 0.0 | 0.0 | 0.00 | 0.00 | 0.00 | 82 | 1010.6 |
| 20260905062005 | 80 | 134 | 0.0 | 0.0 | 0.00 | 0.00 | 0.00 | 82 | 1010.6 |
| 20260905061504 | 80 | 120 | 11.3 | 0.0 | 0.00 | 0.00 | 0.00 | 82 | 1010.6 |
| 20260905061005 | 80 | 73 | 3.5 | 0.0 | 0.00 | 0.00 | 0.00 | 82 | 1010.6 |
| 20260905060505 | 80 | 86 | 3.5 | 0.0 | 0.00 | 0.00 | 0.00 | 82 | 1010.6 |
| 20260905060212 | 80 | 106 | 0.0 | 0.0 | 0.00 | 0.00 | 0.00 | 81 | 1010.6 |
| 20260905055505 | 80 | 103 | 0.0 | 0.0 | 0.00 | 0.00 | 0.00 | 81 | 1010.3 |
| 20260905055005 | 80 | 150 | 3.5 | 0.0 | 0.00 | 0.00 | 0.00 | 81 | 1010.6 |
| 20260905054505 | 80 | 141 | 0.0 | 0.0 | 0.00 | 0.00 | 0.00 | 81 | 1010.6 |
| 20260905054005 | 80 | 137 | 0.0 | 0.0 | 0.00 | 0.00 | 0.00 | 80 | 1010.6 |
| 20260905053505 | 80 | 129 | 7.8 | 0.0 | 0.00 | 0.00 | 0.00 | 80 | 1010.6 |
| 20260905053005 | 80 | 64 | 3.5 | 0.0 | 0.00 | 0.00 | 0.00 | 80 | 1010.6 |
| 20260905052505 | 80 | 104 | 7.8 | 0.0 | 0.00 | 0.00 | 0.00 | 80 | 1010.6 |
| 20260905052005 | 80 | 21 | 3.5 | 0.0 | 0.00 | 0.00 | 0.00 | 80 | 1010.6 |
| 20260905051505 | 80 | 97 | 7.8 | 0.0 | 0.00 | 0.00 | 0.00 | 80 | 1010.6 |
| 20260905051005 | 80 | 44 | 3.5 | 0.0 | 0.00 | 0.00 | 0.00 | 80 | 1010.6 |
| 20260905050505 | 80 | 131 | 11.3 | 0.0 | 0.00 | 0.00 | 0.00 | 80 | 1011.0 |
| 20260905045505 | 80 | 28 | 7.8 | 0.0 | 0.00 | 0.00 | 0.00 | 79 | 1010.6 |
| 20260905045005 | 80 | 142 | 0.0 | 0.0 | 0.00 | 0.00 | 0.00 | 79 | 1010.3 |
| 20260905044505 | 80 | 48 | 7.8 | 0.0 | 0.00 | 0.00 | 0.00 | 79 | 1010.3 |
| 20260905044005 | 80 | 38 | 7.8 | 0.0 | 0.00 | 0.00 | 0.00 | 79 | 1010.3 |
| 20260905043505 | 80 | 144 | 11.3 | 0.0 | 0.00 | 0.00 | 0.00 | 79 | 1010.6 |
| 20260905043213 | 80 | 128 | 0.0 | 0.0 | 0.00 | 0.00 | 0.00 | 78 | 1010.6 |
| 20260905042504 | 80 | 59 | 11.3 | 0.0 | 0.00 | 0.00 | 0.00 | 78 | 1010.6 |
| 20260905042005 | 80 | 98 | 3.5 | 0.0 | 0.00 | 0.00 | 0.00 | 78 | 1010.6 |
| 20260905041505 | 80 | 72 | 15.6 | 0.0 | 0.00 | 0.00 | 0.00 | 77 | 1011.0 |
| 20260905041005 | 81 | 334 | 15.6 | 0.0 | 0.00 | 0.00 | 0.00 | 77 | 1011.0 |
| 20260905040505 | 81 | 122 | 3.5 | 0.0 | 0.00 | 0.00 | 0.00 | 77 | 1010.6 |
| 20260905040213 | 81 | 109 | 3.5 | 0.0 | 0.00 | 0.00 | 0.00 | 77 | 1011.0 |
| 20260905035712 | 81 | 46 | 11.3 | 0.0 | 0.00 | 0.00 | 0.00 | 76 | 1010.6 |
| 20260905035005 | 81 | 77 | 15.6 | 0.0 | 0.00 | 0.00 | 0.00 | 76 | 1011.3 |
| 20260905034712 | 81 | 134 | 7.8 | 0.0 | 0.00 | 0.00 | 0.00 | 75 | 1011.0 |
| 20260905034005 | 81 | 51 | 3.5 | 0.0 | 0.00 | 0.00 | 0.00 | 75 | 1011.0 |
| 20260905033505 | 81 | 111 | 3.5 | 0.0 | 0.00 | 0.00 | 0.00 | 75 | 1011.0 |
| 20260905033211 | 81 | 142 | 11.3 | 0.0 | 0.00 | 0.00 | 0.00 | 74 | 1011.0 |
| 20260905032505 | 81 | 57 | 7.8 | 0.0 | 0.00 | 0.00 | 0.00 | 74 | 1010.6 |
| 20260905032213 | 81 | 11 | 7.8 | 0.0 | 0.00 | 0.00 | 0.00 | 74 | 1011.0 |
| 20260905031505 | 81 | 154 | 20.0 | 0.0 | 0.00 | 0.00 | 0.00 | 74 | 1010.6 |
| 20260905031005 | 81 | 82 | 7.8 | 0.0 | 0.00 | 0.00 | 0.00 | 73 | 1010.6 |
| 20260905030505 | 81 | 113 | 3.5 | 0.0 | 0.00 | 0.00 | 0.00 | 73 | 1010.6 |
| 20260905030005 | 81 | 65 | 7.8 | 0.0 | 0.00 | 0.00 | 0.00 | 73 | 1010.6 |
| 20260905025504 | 82 | 37 | 3.5 | 0.0 | 0.00 | 0.00 | 0.00 | 72 | 1010.6 |
| 20260905025005 | 82 | 76 | 7.8 | 0.0 | 0.00 | 0.00 | 0.00 | 72 | 1010.3 |
| 20260905024712 | 82 | 57 | 20.0 | 0.0 | 0.00 | 0.00 | 0.00 | 72 | 1010.3 |
| 20260905024005 | 82 | 159 | 11.3 | 0.0 | 0.00 | 0.00 | 0.00 | 71 | 1010.3 |
| 20260905023505 | 82 | 71 | 3.5 | 0.0 | 0.00 | 0.00 | 0.00 | 71 | 1010.3 |
| 20260905023005 | 82 | 72 | 15.6 | 0.0 | 0.00 | 0.00 | 0.00 | 70 | 1010.6 |
| 20260905022505 | 82 | 85 | 3.5 | 0.0 | 0.00 | 0.00 | 0.00 | 70 | 1010.3 |
| 20260905022005 | 82 | 96 | 3.5 | 0.0 | 0.00 | 0.00 | 0.00 | 69 | 1009.9 |
| 20260905021505 | 82 | 51 | 3.5 | 0.0 | 0.00 | 0.00 | 0.00 | 69 | 1009.6 |
| 20260905021212 | 83 | 67 | 15.6 | 0.0 | 0.00 | 0.00 | 0.00 | 69 | 1009.6 |
| 20260905020504 | 83 | 105 | 3.5 | 0.0 | 0.00 | 0.00 | 0.00 | 68 | 1009.6 |
| 20260905020005 | 83 | 86 | 11.3 | 0.0 | 0.00 | 0.00 | 0.00 | 68 | 1009.6 |
| 20260905015505 | 83 | 49 | 7.8 | 0.0 | 0.00 | 0.00 | 0.00 | 68 | 1009.6 |
| 20260905015005 | 83 | 77 | 15.6 | 0.0 | 0.00 | 0.00 | 0.00 | 67 | 1009.3 |
| 20260905014505 | 83 | 102 | 11.3 | 0.0 | 0.00 | 0.00 | 0.00 | 67 | 1009.3 |
| 20260905014212 | 83 | 333 | 11.3 | 0.0 | 0.00 | 0.00 | 0.00 | 66 | 1009.3 |
| 20260905013505 | 83 | 107 | 11.3 | 0.0 | 0.00 | 0.00 | 0.00 | 66 | 1009.6 |
| 20260905013005 | 83 | 64 | 15.6 | 0.0 | 0.00 | 0.00 | 0.00 | 65 | 1009.6 |
| 20260905012505 | 83 | 98 | 3.5 | 0.0 | 0.00 | 0.00 | 0.00 | 65 | 1009.3 |
| 20260905012212 | 83 | 49 | 23.5 | 0.0 | 0.00 | 0.00 | 0.00 | 65 | 1009.3 |
| 20260905011505 | 83 | 101 | 15.6 | 0.0 | 0.00 | 0.00 | 0.00 | 65 | 1008.9 |
| 20260905011004 | 83 | 137 | 7.8 | 0.0 | 0.00 | 0.00 | 0.00 | 64 | 1009.3 |
| 20260905010505 | 83 | 85 | 15.6 | 0.0 | 0.00 | 0.00 | 0.00 | 64 | 1008.9 |
| 20260905010005 | 84 | 82 | 7.8 | 0.0 | 0.00 | 0.00 | 0.00 | 64 | 1008.9 |
| 20260905005713 | 84 | 11 | 23.5 | 0.0 | 0.00 | 0.00 | 0.00 | 63 | 1008.9 |
| 20260905005005 | 84 | 53 | 7.8 | 0.0 | 0.00 | 0.00 | 0.00 | 63 | 1008.9 |
| 20260905004505 | 85 | 67 | 27.8 | 0.0 | 0.00 | 0.00 | 0.00 | 63 | 1008.9 |
| 20260905004005 | 85 | 80 | 20.0 | 0.0 | 0.00 | 0.00 | 0.00 | 62 | 1008.9 |
| 20260905003505 | 85 | 56 | 23.5 | 0.0 | 0.00 | 0.00 | 0.00 | 61 | 1008.6 |
| 20260905003005 | 86 | 39 | 11.3 | 0.0 | 0.00 | 0.00 | 0.00 | 60 | 1008.6 |
| 20260905002713 | 86 | 84 | 20.0 | 0.0 | 0.00 | 0.00 | 0.00 | 59 | 1008.6 |
| 20260905002212 | 86 | 85 | 27.8 | 0.0 | 0.00 | 0.00 | 0.00 | 58 | 1008.6 |
| 20260905001505 | 86 | 187 | 7.8 | 0.0 | 0.00 | 0.00 | 0.00 | 57 | 1008.6 |
| 20260905001005 | 86 | 100 | 20.0 | 0.0 | 0.00 | 0.00 | 0.00 | 57 | 1008.6 |
| 20260905000505 | 87 | 115 | 7.8 | 0.0 | 0.00 | 0.00 | 0.00 | 55 | 1008.2 |
| 20260905000005 | 88 | 309 | 7.8 | 0.0 | 0.00 | 0.00 | 0.00 | 54 | 1008.2 |
| 20260904235504 | 88 | 168 | 15.6 | 0.0 | 0.00 | 0.00 | 0.00 | 53 | 1008.2 |
| 20260904235005 | 88 | 79 | 23.5 | 0.0 | 0.00 | 0.00 | 0.00 | 51 | 1007.9 |
| 20260904234505 | 89 | 84 | 3.5 | 0.0 | 0.00 | 0.00 | 0.00 | 50 | 1007.9 |
| 20260904234005 | 89 | 103 | 23.5 | 0.0 | 0.00 | 0.00 | 0.00 | 49 | 1007.9 |
| 20260904233505 | 89 | 57 | 3.5 | 0.0 | 0.00 | 0.00 | 0.00 | 49 | 1007.9 |
| 20260904233005 | 89 | 80 | 11.3 | 0.0 | 0.00 | 0.00 | 0.00 | 48 | 1007.9 |
| 20260904232712 | 89 | 156 | 15.6 | 0.0 | 0.00 | 0.00 | 0.00 | 47 | 1007.9 |
| 20260904232211 | 89 | 158 | 7.8 | 0.0 | 0.00 | 0.00 | 0.00 | 46 | 1007.9 |
| 20260904231505 | 90 | 76 | 11.3 | 0.0 | 0.00 | 0.00 | 0.00 | 46 | 1007.9 |
| 20260904231005 | 90 | 45 | 20.0 | 0.0 | 0.00 | 0.00 | 0.00 | 46 | 1007.9 |
| 20260904230505 | 90 | 239 | 7.8 | 0.0 | 0.00 | 0.00 | 0.00 | 45 | 1007.9 |
| 20260904230005 | 90 | 45 | 15.6 | 0.0 | 0.00 | 0.00 | 0.00 | 45 | 1007.6 |
| 20260904225505 | 90 | 144 | 11.3 | 0.0 | 0.00 | 0.00 | 0.00 | 44 | 1007.6 |
| 20260904225005 | 91 | 105 | 7.8 | 0.0 | 0.00 | 0.00 | 0.00 | 45 | 1007.6 |
| 20260904224505 | 91 | 72 | 15.6 | 0.0 | 0.00 | 0.00 | 0.00 | 43 | 1007.9 |
| 20260904224005 | 92 | 80 | 20.0 | 0.0 | 0.00 | 0.00 | 0.00 | 42 | 1007.9 |
| 20260904223505 | 92 | 67 | 20.0 | 0.0 | 0.00 | 0.00 | 0.00 | 42 | 1007.6 |
| 20260904223005 | 92 | 73 | 11.3 | 0.0 | 0.00 | 0.00 | 0.00 | 41 | 1007.6 |
| 20260904222505 | 92 | 86 | 11.3 | 0.0 | 0.00 | 0.00 | 0.00 | 41 | 1007.9 |
| 20260904222005 | 92 | 113 | 11.3 | 0.0 | 0.00 | 0.00 | 0.00 | 41 | 1007.6 |
| 20260904221505 | 92 | 121 | 11.3 | 0.0 | 0.00 | 0.00 | 0.00 | 40 | 1007.6 |
| 20260904221005 | 92 | 98 | 11.3 | 0.0 | 0.00 | 0.00 | 0.00 | 40 | 1007.6 |
| 20260904220505 | 91 | 140 | 7.8 | 0.0 | 0.00 | 0.00 | 0.00 | 42 | 1007.6 |
| 20260904220005 | 92 | 7 | 20.0 | 0.0 | 0.00 | 0.00 | 0.00 | 42 | 1007.6 |
| 20260904215505 | 92 | 148 | 20.0 | 0.0 | 0.00 | 0.00 | 0.00 | 41 | 1007.6 |
| 20260904215005 | 93 | 63 | 11.3 | 0.0 | 0.00 | 0.00 | 0.00 | 38 | 1007.6 |
| 20260904214505 | 94 | 190 | 0.0 | 0.0 | 0.00 | 0.00 | 0.00 | 37 | 1007.6 |
| 20260904214005 | 92 | 23 | 15.6 | 0.0 | 0.00 | 0.00 | 0.00 | 39 | 1007.6 |
| 20260904213505 | 92 | 149 | 3.5 | 0.0 | 0.00 | 0.00 | 0.00 | 40 | 1007.6 |
| 20260904213005 | 94 | 102 | 11.3 | 0.0 | 0.00 | 0.00 | 0.00 | 38 | 1007.6 |
| 20260904212505 | 94 | 92 | 20.0 | 0.0 | 0.00 | 0.00 | 0.00 | 37 | 1007.6 |
| 20260904212005 | 94 | 162 | 3.5 | 0.0 | 0.00 | 0.00 | 0.00 | 38 | 1007.6 |
| 20260904211505 | 93 | 139 | 15.6 | 0.0 | 0.00 | 0.00 | 0.00 | 39 | 1007.6 |
| 20260904211212 | 94 | 74 | 3.5 | 0.0 | 0.00 | 0.00 | 0.00 | 37 | 1007.6 |
| 20260904210505 | 94 | 77 | 3.5 | 0.0 | 0.00 | 0.00 | 0.00 | 36 | 1007.9 |
| 20260904210005 | 94 | 122 | 11.3 | 0.0 | 0.00 | 0.00 | 0.00 | 36 | 1007.6 |
| 20260904205504 | 93 | 150 | 7.8 | 0.0 | 0.00 | 0.00 | 0.00 | 36 | 1007.9 |
| 20260904205005 | 93 | 75 | 7.8 | 0.0 | 0.00 | 0.00 | 0.00 | 36 | 1007.9 |
| 20260904204505 | 93 | 174 | 27.8 | 0.0 | 0.00 | 0.00 | 0.00 | 35 | 1007.9 |
| 20260904204005 | 93 | 101 | 7.8 | 0.0 | 0.00 | 0.00 | 0.00 | 35 | 1007.9 |
| 20260904203505 | 93 | 69 | 3.5 | 0.0 | 0.00 | 0.00 | 0.00 | 35 | 1007.9 |
| 20260904203212 | 93 | 124 | 7.8 | 0.0 | 0.00 | 0.00 | 0.00 | 36 | 1007.9 |
| 20260904202505 | 93 | 165 | 3.5 | 0.0 | 0.00 | 0.00 | 0.00 | 36 | 1007.9 |
| 20260904202005 | 93 | 150 | 27.8 | 0.0 | 0.00 | 0.00 | 0.00 | 36 | 1008.2 |
| 20260904201711 | 93 | 96 | 3.5 | 0.0 | 0.00 | 0.00 | 0.00 | 36 | 1008.2 |
| 20260904201005 | 93 | 68 | 3.5 | 0.0 | 0.00 | 0.00 | 0.00 | 37 | 1007.9 |
| 20260904200505 | 94 | 120 | 0.0 | 0.0 | 0.00 | 0.00 | 0.00 | 36 | 1008.2 |
| 20260904200005 | 94 | 175 | 7.8 | 0.0 | 0.00 | 0.00 | 0.00 | 35 | 1008.2 |
| 20260904195505 | 94 | 158 | 7.8 | 0.0 | 0.00 | 0.00 | 0.00 | 34 | 1008.2 |
| 20260904195005 | 93 | 108 | 11.3 | 0.0 | 0.00 | 0.00 | 0.00 | 34 | 1008.6 |
| 20260904194504 | 92 | 113 | 11.3 | 0.0 | 0.00 | 0.00 | 0.00 | 37 | 1008.6 |
| 20260904194005 | 92 | 162 | 3.5 | 0.0 | 0.00 | 0.00 | 0.00 | 39 | 1008.6 |
| 20260904193505 | 92 | 62 | 3.5 | 0.0 | 0.00 | 0.00 | 0.00 | 38 | 1008.6 |
| 20260904193212 | 93 | 166 | 3.5 | 0.0 | 0.00 | 0.00 | 0.00 | 41 | 1008.6 |
| 20260904192713 | 93 | 30 | 7.8 | 0.0 | 0.00 | 0.00 | 0.00 | 37 | 1008.9 |
| 20260904192005 | 94 | 127 | 7.8 | 0.0 | 0.00 | 0.00 | 0.00 | 36 | 1008.9 |
| 20260904191505 | 93 | 178 | 7.8 | 0.0 | 0.00 | 0.00 | 0.00 | 39 | 1008.9 |